www.pogodaiklimat.ru

Погода и климат >> Архив погоды >> Норвегия >> Рена аэропорт


ПОГОДА в Рена аэропорту

  • Прогноз погоды в Рена аэропорту
  • Монитор погоды в Рена аэропорту

АРХИВ ПОГОДЫ в Рена аэропорту

Время (UTC), дата Ветер
(напр.,м/с)
 
Видим.   Явления Облачность Т
(С)
Тd
(С)
f
(%)
Тe
(С)
Тes
(С)
Комфортность P
(гПа)
Po
(гПа)
Тmin
(С)
Tmax
(С)
R
(мм)
R24
(мм)
S
(см)
16 13.09 З 2 н/о н/о +14.4 +1.3 41 +14 +14 1017.2 987.1
17 13.09 З 3 н/о н/о +12.5 +0.5 44 +11 +11 1017.9 987.6 0.1
18 13.09 СЗ 2
{11}
н/о н/о +9.9 +0.2 51 +9 +9 1018.5 987.9 +16.1 0.3
19 13.09 СВ 1 н/о н/о +6.4 +1.8 72 +6 +6 1019.5 988.5 0.1
20 13.09 С 3 н/о н/о +7.2 +0.8 64 +5 +5 1019.8 988.8 0.3
21 13.09 В 1 н/о н/о +5.3 +1.2 75 +4 +4 1020.6 989.4
22 13.09 З 1 н/о н/о +4.2 +0.1 75 +3 +3 1021.2 989.9
23 13.09 В 1 н/о н/о +0.8 -0.5 91 -1 -1 1022.0 990.3
00 14.09 В 1
{5}
н/о н/о +0.2 -0.5 95 -2 -2 1022.5 990.7 0.4
01 14.09 В 2-2
{3}
н/о н/о -0.8 -1.6 94 -5 -5 1022.7 990.8
02 14.09 ЮВ 2-3
{4}
н/о н/о -0.4 -1.0 96 -4 -4 1022.6 990.7
03 14.09 СВ 2 н/о н/о +0.3 -0.5 94 -3 -3 1022.7 990.9 0.3
04 14.09 В 1-2
{3}
н/о н/о -2.0 -2.7 95 -4 -4 1023.1 991.0
05 14.09 ЮВ 1-2
{2}
н/о н/о -2.6 -3.3 95 -5 -5 1023.6 991.4
06 14.09 В 1-2
{6}
н/о н/о +0.5 -0.3 94 -2 -2 1023.2 991.4 -2.9 +9.9 0.7
07 14.09 В 3 н/о н/о +5.6 +3.1 84 +2 +2 1022.4 991.2
09 14.09 Ю 5-7
{7}
н/о н/о +10.6 +3.1 60 +8 +8 1021.3 990.7 0.2
10 14.09 Ю 4-6
{8}
н/о н/о +12.2 +3.4 55 +10 +10 1020.8 990.3 0.1
11 14.09 ЮЗ 5-7
{7}
н/о н/о +13.2 +2.0 47 +11 +11 1020.1 989.8 0.1
12 14.09 Ю 4 н/о н/о +12.7 +3.3 53 +11 +11 1019.4 989.0
13 14.09 Ю 5-6
{8}
н/о н/о +12.1 +3.0 54 +10 +10 1018.5 988.1 0.1
14 14.09 Ю 3-6
{7}
н/о н/о +11.6 +3.3 57 +10 +10 1018.0 987.6
15 14.09 Ю 4-9
{9}
н/о н/о +11.0 +4.7 65 +9 +9 1016.7 986.2 0.1
16 14.09 Ю 4-6
{8}
н/о н/о +9.0 +5.9 81 +6 +6 1015.6 985.0 0.1
17 14.09 ЮВ 4-6
{6}
н/о н/о +8.0 +6.5 90 +5 +5 1014.1 983.3 0.5
18 14.09 Ю 4-6
{9}
н/о н/о +8.1 +6.6 90 +5 +5 1012.1 981.5
19 14.09 Ю 6-9
{10}
н/о н/о +8.8 +7.3 90 +5 +5 1009.3 978.8 0.3
20 14.09 Ю 7-13
{13}
н/о н/о +9.6 +7.2 85 +6 +6 1007.2 976.9 0.1
21 14.09 Ю 4-7
{11}
н/о н/о +9.3 +7.5 89 +6 +6 1005.5 975.2 0.1
22 14.09 Ю 5-7
{9}
н/о н/о +9.3 +7.0 86 +6 +6 1004.0 973.7 0.1
23 14.09 ЮВ 5-7
{8}
н/о н/о +9.5 +6.5 82 +6 +6 1002.3 972.1
00 15.09 ЮВ 4-8
{13}
н/о н/о +9.5 +6.3 80 +7 +7 1000.7 970.6 0.1
01 15.09 В 2-5
{8}
н/о н/о +8.5 +5.3 80 +7 +7 999.4 969.2
02 15.09 ЮВ 3-6
{8}
н/о н/о +8.2 +5.3 82 +6 +6 998.3 968.1 0.2
03 15.09 ЮВ 2-3
{7}
н/о н/о +6.9 +4.5 85 +5 +5 997.1 966.8
04 15.09 ЮЗ 2-5
{8}
н/о н/о +7.0 +3.8 80 +5 +5 996.2 965.9 0.2
05 15.09 В 3-4
{10}
н/о н/о +6.1 +3.3 82 +3 +3 995.7 965.4 0.2
06 15.09 ЮВ 3-5
{10}
н/о н/о +8.0 +3.5 73 +5 +5 995.6 965.5 +5.6 +9.6 2
07 15.09 ЮВ 3-4
{6}
н/о н/о +8.2 +3.1 70 +6 +6 995.5 965.4 0.2
08 15.09 Ю 4-7
{7}
н/о н/о +10.6 +2.8 58 +8 +8 994.7 964.9
09 15.09 ЮЗ 4-6
{8}
н/о н/о +12.0 +2.1 51 +10 +10 994.4 964.7 0.1
10 15.09 Ю 4-6
{8}
н/о н/о +13.2 +2.1 47 +12 +12 993.4 963.9 0.1
11 15.09 ЮЗ 5 н/о н/о +15.3 +1.4 39 +14 +14 992.8 963.5
12 15.09 ЮЗ 8-11
{13}
н/о н/о +15.1 +1.8 41 +13 +13 992.3 963.0
13 15.09 ЮЗ 6-10
{14}
н/о н/о +15.3 +2.7 43 +14 +14 991.9 962.6
14 15.09 З 6-10
{10}
н/о н/о +14.9 +2.7 44 +13 +13 991.9 962.6
15 15.09 З 6-10
{12}
н/о н/о +15.8 +1.8 39 +15 +15 991.9 962.7
16 15.09 З 5-8
{11}
н/о н/о +14.4 +1.9 43 +13 +13 992.2 962.8
17 15.09 З 4-7
{10}
н/о н/о +13.2 +2.0 47 +12 +12 992.4 962.9
18 15.09 З 4-7
{14}
н/о н/о +11.4 +2.8 55 +9 +9 993.2 963.5 +7.1 +16.7 0.4
19 15.09 З 3-5
{6}
н/о н/о +10.5 +2.2 56 +9 +9 994.7 964.8
20 15.09 З 2-3
{4}
н/о н/о +7.2 +2.5 72 +5 +5 995.9 965.7
21 15.09 СЗ 4-7
{9}
н/о н/о +10.7 +1.7 54 +9 +9 996.8 966.9
22 15.09 Ю 2-4
{6}
н/о н/о +7.3 +2.3 71 +5 +5 998.1 967.8
23 15.09 В 3-4
{4}
н/о н/о +5.6 +2.8 82 +2 +2 999.5 969.0
00 16.09 В 2-3
{9}
н/о н/о +4.5 +2.1 84 +2 +2 1000.6 969.9
01 16.09 СЗ 1-4
{4}
н/о н/о +4.0 +1.9 86 +3 +3 1001.3 970.6
02 16.09 СЗ 3-6
{7}
н/о н/о +8.0 -0.3 56 +6 +6 1001.3 971.0
03 16.09 СЗ 4-7
{9}
н/о н/о +8.7 -2.6 45 +6 +6 1001.8 971.5
04 16.09 СЗ 2-4
{8}
н/о н/о +7.9 -2.0 50 +6 +6 1002.3 971.9
05 16.09 З 1-3
{8}
н/о н/о +7.6 -1.6 52 +7 +7 1002.5 972.1
06 16.09 В 1-2
{9}
н/о н/о +7.4 -0.1 59 +7 +7 1003.0 972.6 +2.7 +11.2
07 16.09 СЗ 3-5
{5}
н/о н/о +9.1 -0.9 50 +7 +7 1003.3 973.0
08 16.09 СЗ 5-11
{11}
н/о н/о +9.7 -1.3 46 +7 +7 1003.8 973.6
09 16.09 СЗ 4-8
{10}
н/о н/о +9.9 -1.9 44 +8 +8 1004.4 974.2
10 16.09 СЗ 4-7
{10}
н/о н/о +9.9 -2.8 41 +8 +8 1005.2 975.0
11 16.09 СЗ 4-8
{10}
н/о н/о +12.1 -1.5 39 +11 +11 1005.4 975.4
12 16.09 СЗ 5-12
{12}
н/о н/о +13.4 -2.0 34 +12 +12 1005.0 975.1
13 16.09 СЗ 5-8
{10}
н/о н/о +13.9 -3.6 30 +13 +13 1004.8 975.0
14 16.09 СЗ 6-9
{10}
н/о н/о +13.7 -4.3 28 +12 +12 1004.8 975.0
15 16.09 СЗ 7-11
{11}
н/о н/о +13.5 -3.6 30 +11 +11 1004.3 974.5
16 16.09 С 3-5
{8}
н/о н/о +11.6 -2.1 38 +10 +10 1004.3 974.3
17 16.09 С 1-2
{4}
н/о н/о +8.5 +2.4 65 +8 +8 1004.2 973.9
18 16.09 В 1-2
{11}
н/о н/о +2.9 +1.0 87 +1 +1 1004.6 973.6 +2.9 +14.0
19 16.09 В 2-2
{2}
н/о н/о +1.5 +0.3 92 -2 -2 1004.5 973.4
20 16.09 В 1-2
{3}
н/о н/о +1.5 +0.2 91 -0 -0 1004.2 973.1
21 16.09 С 1-1
{3}
н/о н/о +1.6 +0.5 92 -0 -0 1003.8 972.7
22 16.09 ЮВ 2-3
{3}
н/о н/о +0.6 -1.0 89 -3 -3 1003.7 972.5
23 16.09 В 1-2
{3}
н/о н/о -0.9 -2.1 92 -3 -3 1003.9 972.5
00 17.09 штиль 0-1
{3}
н/о н/о -2.2 -2.8 96 -4 -4 1003.7 972.2
01 17.09 ЮВ 1-1
{2}
н/о н/о -1.5 -2.1 96 -4 -4 1003.4 972.0
02 17.09 В 1-2
{3}
н/о н/о -2.3 -3.1 94 -5 -5 1003.4 971.9
03 17.09 ЮВ 1-2
{2}
н/о н/о -2.8 -3.5 95 -5 -5 1003.5 971.9
04 17.09 В 1-2
{3}
н/о н/о -2.6 -3.3 95 -5 -5 1003.4 971.9
05 17.09 СЗ 2-3
{3}
н/о н/о -2.2 -2.9 95 -6 -6 1003.5 972.0
06 17.09 СЗ 3-4
{4}
н/о н/о -0.3 -1.5 92 -5 -5 1003.7 972.4 -3.4 +2.7
07 17.09 З 1-3
{3}
н/о н/о +0.6 -0.6 92 -1 -1 1004.1 972.9
08 17.09 В 1-2
{3}
н/о н/о +2.0 +0.2 88 0 0 1004.8 973.7
09 17.09 С 6-9
{9}
н/о н/о +8.2 0.0 56 +5 +5 1004.4 974.0
10 17.09 С 8-12
{14}
н/о н/о +9.8 -0.8 48 +6 +6 1004.5 974.3
11 17.09 С 8-12
{14}
н/о н/о +10.5 -1.3 44 +7 +7 1005.0 974.8
12 17.09 С 6-11
{14}
н/о н/о +10.1 -2.0 43 +7 +7 1005.6 975.4
13 17.09 -9
{10}
н/о н/о +12.3 -1.6 38 1005.6 975.6
14 17.09 С 6-9
{9}
н/о н/о +12.4 -2.5 35 +10 +10 1005.8 975.8
15 17.09 С 3-6
{9}
н/о н/о +11.1 -1.4 42 +10 +10 1006.8 976.7
16 17.09 С 7-9
{10}
н/о н/о +8.9 +0.9 57 +5 +5 1008.3 977.9
17 17.09 С 2-2
{7}
н/о н/о +7.8 +1.7 65 +6 +6 1008.7 978.1
18 17.09 С 1-2
{10}
н/о н/о +4.6 +0.7 76 +3 +3 1009.6 978.7 -0.8 +13.0
19 17.09 З 1-1
{2}
н/о н/о +3.8 +2.5 91 +2 +2 1010.3 979.3
20 17.09 штиль 0-1
{2}
н/о н/о +1.4 +0.2 92 0 0 1011.3 980.0
21 17.09 Ю 1-2
{2}
н/о н/о +0.7 -0.2 94 -1 -1 1012.0 980.6
22 17.09 штиль 0-1
{2}
н/о н/о 0.0 -0.7 95 -1 -1 1012.8 981.3
23 17.09 СВ 1-2
{3}
н/о н/о +1.3 +0.8 96 -1 -1 1013.2 981.8
00 18.09 СЗ 1-2
{3}
н/о н/о +1.2 +0.3 94 -1 -1 1013.5 982.1
01 18.09 В 1-2
{2}
н/о н/о -1.0 -1.7 95 -3 -3 1014.1 982.4
02 18.09 В 1-2
{2}
н/о н/о -1.0 -1.5 96 -3 -3 1014.5 982.8
03 18.09 СВ 1-2
{2}
н/о н/о -1.5 -2.0 96 -4 -4 1015.1 983.3
04 18.09 Ю 1-1
{2}
н/о н/о -2.4 -3.2 94 -5 -5 1015.5 983.6
05 18.09 ЮВ 1-3
{3}
н/о н/о -2.6 -3.2 96 -5 -5 1016.2 984.2
06 18.09 ЮВ 2-2
{3}
н/о н/о -2.1 -2.8 95 -6 -6 1016.8 984.9 -3.4 +4.4
07 18.09 В 1-2
{2}
н/о н/о +2.4 +1.8 96 +1 +1 1016.8 985.4
08 18.09 СЗ 3-5
{5}
н/о н/о +8.3 +1.9 64 +6 +6 1016.6 985.9
09 18.09 С 5-8
{8}
н/о н/о +10.8 -0.1 47 +8 +8 1016.6 986.1
10 18.09 С 6-10
{10}
н/о н/о +12.0 -0.8 41 +10 +10 1016.4 986.1
11 18.09 С 6-10
{10}
н/о н/о +13.1 -0.7 39 +11 +11 1016.6 986.4
12 18.09 С 7-11
{11}
н/о н/о +13.4 -2.5 33 +11 +11 1016.6 986.4
13 18.09 СЗ 6-10
{11}
н/о н/о +13.4 -2.4 33 +12 +12 1016.6 986.4
14 18.09 СЗ 6-8
{11}
н/о н/о +12.3 -2.1 37 +10 +10 1017.0 986.7
15 18.09 С 5-8
{10}
н/о н/о +12.1 -1.9 38 +10 +10 1017.5 987.1
16 18.09 СЗ 5-9
{9}
н/о н/о +11.8 -1.6 39 +10 +10 1017.8 987.4
17 18.09 С 3-5
{10}
н/о н/о +9.9 -1.8 44 +8 +8 1018.6 988.0
18 18.09 С 3-8
{11}
н/о н/о +8.1 -0.9 53 +6 +6 1019.9 989.0 -2.2 +13.9
19 18.09 СЗ 1-2
{6}
н/о н/о +4.8 -0.9 67 +4 +4 1021.0 989.7
20 18.09 С 2-3
{6}
н/о н/о +4.9 -0.6 68 +3 +3 1021.6 990.3
21 18.09 СЗ 4-5
{5}
н/о н/о +4.2 -0.1 74 0 0 1022.4 991.0
22 18.09 С 1-3
{6}
н/о н/о +4.6 -0.7 68 +4 +4 1022.5 991.2
23 18.09 З 1-3
{6}
н/о н/о +0.7 -1.9 83 -1 -1 1023.5 991.7
00 19.09 ЮВ 2-3
{6}
н/о н/о +1.3 -2.4 76 -2 -2 1023.8 992.1
01 19.09 ЮВ 1-2
{5}
н/о н/о -2.6 -4.0 90 -5 -5 1025.0 992.8
02 19.09 штиль 0-1
{2}
н/о н/о -2.9 -3.7 94 -4 -4 1025.2 992.9
03 19.09 В 1-1
{2}
н/о н/о -4.9 -6.0 92 -7 -7 1025.7 993.2
04 19.09 В 1-1
{1}
н/о н/о -4.1 -4.7 96 -7 -7 1025.7 993.3
05 19.09 В 1-2
{2}
н/о н/о -4.4 -5.1 95 -7 -7 1026.2 993.7
06 19.09 В 1-1
{5}
н/о н/о -3.7 -4.4 95 -6 -6 1026.6 994.2 -5.3 +8.4
07 19.09 ЮВ 1-1
{2}
н/о н/о 0.0 -0.7 95 -2 -2 1026.8 994.8
08 19.09 СВ 1-1
{2}
н/о н/о +3.9 -0.2 75 +3 +3 1026.6 995.1
09 19.09 З 1-2
{2}
н/о н/о +6.8 -0.9 58 +6 +6 1026.3 995.1
10 19.09 В 1-1
{2}
н/о н/о +7.9 -1.1 53 +8 +8 1026.1 995.0
11 19.09 З 1-1
{2}
н/о н/о +9.0 -1.0 50 +9 +9 1025.7 994.8
12 19.09 З 1-2
{2}
н/о н/о +10.2 -1.3 45 +10 +10 1025.5 994.7
13 19.09 ЮВ 2-2
{3}
н/о н/о +10.4 -1.1 45 +9 +9 1025.1 994.3
14 19.09 Ю 1-1
{3}
н/о н/о +10.3 -0.3 48 +10 +10 1024.7 993.9
15 19.09 Ю 1-2
{3}
н/о н/о +10.0 +1.2 54 +10 +10 1024.5 993.7
16 19.09 СВ 1-1
{1}
н/о н/о +8.9 +3.9 71 +8 +8 1024.1 993.2
17 19.09 ЮВ 1-1
{1}
н/о н/о +6.7 +3.9 82 +6 +6 1024.0 992.9
18 19.09 штиль 0-1
{3}
н/о н/о +4.2 +2.5 89 +3 +3 1024.3 992.9 -3.6 +11.0
19 19.09 В 1-1
{1}
н/о н/о +2.0 +0.8 92 0 0 1024.3 992.6
20 19.09 В 1-1
{3}
н/о н/о +2.9 +1.9 93 +1 +1 1023.8 992.3
21 19.09 СВ 1-1
{2}
н/о н/о +3.4 +2.2 92 +2 +2 1023.7 992.2
22 19.09 С 1-1
{1}
н/о н/о +3.7 +2.5 92 +2 +2 1023.9 992.4
23 19.09 СЗ 1-1
{2}
н/о н/о +3.6 +2.7 94 +2 +2 1023.4 991.9
00 20.09 штиль 0-1
{3}
н/о н/о +3.4 +2.5 94 +2 +2 1023.2 991.7 0.1
01 20.09 штиль 0-1
{2}
н/о н/о +3.4 +2.7 95 +2 +2 1022.3 990.9 0.1
02 20.09 ЮВ 1-2
{2}
н/о н/о +3.6 +2.9 95 +2 +2 1021.5 990.1 0.4
03 20.09 Ю 2-3
{3}
н/о н/о +4.0 +3.2 95 +1 +1 1020.7 989.4
04 20.09 ЮВ 3-3
{3}
н/о н/о +4.2 +3.3 94 0 0 1020.3 989.0 0.1
05 20.09 ЮВ 2-3
{4}
н/о н/о +4.2 +3.3 94 +1 +1 1019.7 988.4
06 20.09 ЮВ 2-3
{4}
н/о н/о +4.3 +3.3 93 +1 +1 1019.4 988.1 +1.8 +4.3 0.7
07 20.09 Ю 3-4
{5}
н/о н/о +4.7 +3.1 89 +1 +1 1019.2 988.0
08 20.09 Ю 2-3
{4}
н/о н/о +5.4 +3.7 89 +3 +3 1018.9 987.8
09 20.09 ЮВ 2-3
{4}
н/о н/о +7.3 +5.2 87 +5 +5 1018.2 987.3
10 20.09 ЮВ 2-3
{4}
н/о н/о +10.3 +5.9 74 +9 +9 1017.3 986.7
11 20.09 Ю 2-4
{4}
н/о н/о +13.0 +6.3 64 +12 +12 1016.3 986.1
12 20.09 ЮВ 2-3
{5}
н/о н/о +16.3 +7.5 56 +16 +16 1015.4 985.5
13 20.09 Ю 2-6
{6}
н/о н/о +19.2 +7.8 48 +20 +20 1014.5 984.9
14 20.09 З 7-12
{12}
н/о н/о +19.8 +5.0 38 +20 +20 1014.0 984.5
15 20.09 СЗ 6-10
{12}
н/о н/о +19.0 +5.1 40 +19 +19 1014.3 984.7

 

Местоположение метеостанции Рена аэропорт (Норвегия): широта 61.19 долгота 11.37 высота над уровнем моря 255 м.

В архиве по умолчанию представлена погода в Рена аэропорту за последнюю неделю. Архивные данные за месяц целиком и за предыдущие месяцы, начиная с января 2011 года, Вы можете получить, выбрав интересующий диапазон дат из раскрывающегося списка и нажав кнопку "Ввод!".


*Определитесь, кто Вы:
робот инопланетянин человек

Внимание! Время в таблицах - всемирное. Для получения местного времени необходимо прибавить поправку, которая равна 1 ч.

Смотрите также архив погоды в соседних городах и на ближайших метеорологических станциях:

Погода в Эвенстаде (Норвегия) (30 км)
Погода в Хамар аэропорту (Норвегия) (44 км)
Погода в Хамаре (Норвегия) (46 км)
Погода в Лиллехаммере (Норвегия) (49 км)
Погода в Трюсиль Вегстасьон (Норвегия) (49 км)
Погода в Кисе Па Хедмарк (Норвегия) (56 км)
Погода в Апельсволле (Норвегия) (61 км)
Погода в Фаванге (Норвегия) (70 км)
Погода в Квитфеле (Норвегия) (73 км)
Погода во Флиса (Норвегия) (73 км)

Пояснения к столбцам:

Ветер - указаны скорость ветра в м/с - средняя за 10 мин, порывы в срок и между сроками (в фигурных скобках) и направление, откуда дует ветер: С - северный, СВ - северо-восточный, В - восточный, ЮВ - юго-восточный, Ю - южный, ЮЗ - юго-западный, З - западный, СЗ - северо-западный.
Видимость - горизонтальная дальность видимости в метрах или километрах. При видимости от 1 до 10 км при отсутствии осадков обычно наблюдается дымка, при ухудшении видимости до 1 км и менее - туман. В сухую погоду видимость может ухудшаться дымом, пылью или мглою.
Явления - указаны атмосферные явления, наблюдавшиеся в срок или в последний час перед сроком; фигурными скобками обозначены явления, наблюдавшиеся между сроками (за 1-3 часа до срока); квадратными скобками обозначены град или гололедные отложения с указанием их диаметра в мм.
Облачность - указаны через наклонную черту общая и нижняя облачность в баллах и высота нижней границы облаков в метрах; квадратными скобками обозначены формы облаков: Ci - перистые, Cs - перисто-слоистые, Cc - перисто-кучевые, Ac - высококучевые, As - высокослоистые, Sc - слоисто-кучевые, Ns - слоисто-дождевые, Cu - кучевые, Cb - кучево-дождевые. Подробнее классификацию облаков см. в Атласе облаков (PDF).
T - Температура воздуха - температура, измеренная на высоте 2 м над землей.
Td - Температура точки росы - температура, при понижении до которой содержащийся в воздухе водяной пар достигнет насыщения.
f - Относительная влажность воздуха - влажноcть воздуха, измеренная на высоте 2 м над землей.
Te - Эффективная температура - температура, которую ощущает одетый по сезону человек в тени. Характеристика душности погоды. При расчете учитывается влияние влажности воздуха и скорости ветра на теплоощущения человека.
Tes - Эффективная температура на солнце - температура, которую ощущает человек, с поправкой на солнечный нагрев. Характеристика знойности погоды. Зависит от высоты солнца над горизонтом, облачности и скорости ветра. Ночью, в пасмурную погоду, а также при ветре 12 м/с и более поправка равна нулю.
P - Атмосферное давление - приведенное к уровню моря атмосферное давление.
Po - Атмосферное давление - измеренное на уровне метеостанции атмосферное давление.
Tmin - Минимальная температура - минимум температуры воздуха на высоте 2 м над землей.
Tmax - Максимальная температура - максимум температуры воздуха на высоте 2 м над землей.
R - Количество осадков - Количество выпавших осадков за период времени, мм. При наведении курсора мыши на число - период времени, за который выпало указанное количество осадков.
R24 - Количество осадков - Количество выпавших осадков за 24 часа, мм.
S - Снежный покров - Высота снежного покрова, см. При наведении курсора мыши на число - состояние снежного покрова и степень покрытия местности в баллах.